Location: Kershaw
(34.5481°N, 80.5823°W)
Time: 17:09:28
(UTC+00:00)

Transit 2A - Pass Details

Date: 10 October 2022
Orbit: 598 x 959 km, 66.7° (Epoch: 06 December)

Event Time Altitude Azimuth Distance (km) Brightness Sun altitude
Rises 03:15:55 0° 242° (WSW) 2,911 - -51.7°
Reaches altitude 10° 03:18:49 10° 261° (W) 1,969 - -52.2°
Maximum altitude 03:21:53 18° 306° (NW) 1,473 - -52.7°
Drops below altitude 10° 03:24:56 10° 351° (N) 1,939 - -53.1°
Sets 03:27:46 0° 10° (N) 2,849 - -53.5°
